This demonstration page uses our WeatherBlox Daily Observations layout. Learn more.

Left ArrowRight Arrow

53.62937, 11.41316

Hourly Observations for January 12, 2018

Temp ( °F °C ) Dew Point ( °F °C ) Humidity (%) Winds ( mph kmh ) Pressure ( in mb ) Visibility ( mi km ) Precip ( " mm )
5:20 am 05:20 Cloudy with Mist and Fog 34 1 34 1 100 100 ENE 9 15 30.27 1025 1 1 N/A
5:50 am 05:50 Mostly Cloudy with Mist and Fog 34 1 34 1 100 100 ENE 9 15 30.27 1025 1 1 N/A
6:20 am 06:20 Cloudy with Mist and Fog 34 1 34 1 100 100 ENE 9 15 30.27 1025 1 2 N/A
6:50 am 06:50 Cloudy with Mist and Fog 34 1 34 1 100 100 ENE 9 15 30.33 1027 1 1 N/A
7:20 am 07:20 Cloudy with Mist and Fog 34 1 34 1 100 100 ENE 9 15 30.33 1027 1 2 N/A
7:50 am 07:50 Cloudy with Mist and Fog 34 1 34 1 100 100 ENE 9 15 30.36 1028 2 3 N/A
8:20 am 08:20 Cloudy with Light Rain 34 1 34 1 100 100 ENE 8 13 30.36 1028 2 4 N/A
8:50 am 08:50 Cloudy with Mist and Fog 34 1 34 1 100 100 E 8 13 30.36 1028 3 4 N/A
9:20 am 09:20 Cloudy with Mist and Fog 34 1 34 1 100 100 E 8 13 30.39 1029 3 5 N/A
9:50 am 09:50 Cloudy with Mist and Fog 34 1 34 1 100 100 E 9 15 30.39 1029 3 4 N/A
10:20 am 10:20 Cloudy with Mist and Fog 34 1 34 1 100 100 E 10 17 30.39 1029 2 3 N/A
10:50 am 10:50 Cloudy with Mist and Fog 34 1 34 1 100 100 E 12 19 30.39 1029 2 4 N/A
11:20 am 11:20 Cloudy with Mist and Fog 34 1 34 1 100 100 E 9 15 30.42 1030 3 5 N/A
11:50 am 11:50 Cloudy 34 1 34 1 100 100 ENE 9 15 30.42 1030 4 7 N/A
12:20 pm 12:20 Cloudy 34 1 34 1 100 100 ENE 9 15 30.42 1030 6 9 N/A
12:50 pm 12:50 Cloudy 34 1 34 1 100 100 E 10 17 30.42 1030 30 48 N/A
1:20 pm 13:20 Cloudy 34 1 34 1 100 100 ENE 10 17 30.42 1030 30 48 N/A
1:50 pm 13:50 Cloudy 34 1 34 1 100 100 ENE 9 15 30.42 1030 30 48 N/A
2:20 pm 14:20 Cloudy 34 1 34 1 100 100 ENE 9 15 30.42 1030 30 48 N/A
2:50 pm 14:50 Cloudy 34 1 34 1 100 100 ENE 9 15 30.42 1030 4 7 N/A
3:20 pm 15:20 Cloudy 34 1 34 1 100 100 ENE 9 15 30.42 1030 6 9 N/A
3:50 pm 15:50 Cloudy 34 1 32 0 93 93 ENE 9 15 30.42 1030 4 7 N/A
4:20 pm 16:20 Cloudy 34 1 32 0 93 93 ENE 10 17 30.45 1031 5 8 N/A
4:50 pm 16:50 Cloudy 34 1 32 0 93 93 ENE 9 15 30.45 1031 5 8 N/A
5:20 pm 17:20 Cloudy 34 1 32 0 93 93 E 9 15 30.45 1031 4 6 N/A
5:50 pm 17:50 Cloudy with Mist and Fog 34 1 32 0 93 93 ENE 9 15 30.45 1031 2 4 N/A
6:20 pm 18:20 Cloudy with Mist and Fog 34 1 32 0 93 93 ENE 9 15 30.45 1031 3 5 N/A

Powered by AerisWeather